Location: Newark
(48.0000°N, 67.0000°E)
Time: 02:25:06
(UTC+00:00)

Vanguard 2 - Pass Details

Date: 26 February 2020
Orbit: 552 x 2938 km, 32.9° (Epoch: 08 April)

Event Time Altitude Azimuth Distance (km) Brightness Sun altitude
Exits shadow 21:59:55 31° 141° (SE) 3,039 10.4 -41.4°
Drops below altitude 10° 22:08:58 10° 108° (ESE) 5,119 12.0 -40.3°
Sets 22:14:07 0° 101° (ESE) 6,426 12.7 -39.6°
